Location: Wald
(31.7579°N, 86.6655°W)
Time: 12:20:37
(UTC+00:00)

Cosmos 1943 Rocket - Pass Details

Date: 14 July 2020
Orbit: 811 x 845 km, 71.0° (Epoch: 08 August)

Event Time Altitude Azimuth Distance (km) Brightness Sun altitude
Rises 03:11:21 0° 3° (N) 3,404 6.0 -24.1°
Reaches altitude 10° 03:15:37 10° 33° (NNE) 2,460 4.8 -24.7°
Maximum altitude 03:17:44 12° 55° (NE) 2,311 4.4 -25.0°
Enters shadow 03:18:24 12° 63° (ENE) 2,324 4.4 -25.1°
